This demonstration page uses our WeatherBlox Daily Observations layout. Learn more.

Left ArrowRight Arrow

Hourly Observations for August 5, 2020

Temp ( °F °C ) Dew Point ( °F °C ) Humidity (%) Winds ( mph kmh ) Pressure ( in mb ) Visibility ( mi km ) Precip ( " mm )
12:15 am 00:15 Clear 55 13 54 12.2 95 95 N 3 6 30.10 1019 10 16 0.00 0.00
12:35 am 00:35 Clear 55 13 54 12.1 94 94 Calm 30.10 1019 10 16 0.00 0.00
12:55 am 00:55 Clear 56 13.1 53 11.7 91 91 Calm 30.11 1020 10 16 0.00 0.00
1:15 am 01:15 Clear 56 13.2 53 11.4 89 89 Calm 30.11 1020 10 16 0.00 0.00
1:35 am 01:35 Clear 55 12.6 52 11.2 91 91 NNW 3 6 30.11 1020 10 16 0.00 0.00
1:55 am 01:55 Clear 53 11.6 52 11.1 97 97 Calm 30.12 1020 10 16 0.00 0.00
2:15 am 02:15 Clear 53 11.7 52 11.1 96 96 Calm 30.11 1020 10 16 0.00 0.00
2:35 am 02:35 Clear 51 10.8 51 10.4 97 97 Calm 30.12 1020 10 16 0.00 0.00
2:55 am 02:55 Clear 51 10.7 51 10.6 99 99 Calm 30.12 1020 10 16 0.00 0.00
3:15 am 03:15 Clear 51 10.5 51 10.3 99 99 Calm 30.12 1020 10 16 0.00 0.00
3:35 am 03:35 Clear 51 10.5 51 10.3 99 99 Calm 30.12 1020 10 16 0.00 0.00
3:55 am 03:55 Clear 51 10.3 50 10.2 99 99 Calm 30.12 1020 10 16 0.00 0.00
4:15 am 04:15 Clear 51 10.5 51 10.5 100 100 Calm 30.12 1020 10 16 0.00 0.00
4:35 am 04:35 Clear 49 9.7 49 9.6 99 99 Calm 30.13 1020 10 16 0.00 0.00
4:55 am 04:55 Clear 49 9.5 49 9.5 100 100 Calm 30.13 1020 10 16 0.00 0.00
5:15 am 05:15 Clear 49 9.7 49 9.5 99 99 Calm 30.13 1020 10 16 0.00 0.00
5:35 am 05:35 Clear 49 9.7 49 9.5 99 99 Calm 30.14 1021 10 16 0.00 0.00
5:55 am 05:55 Clear 49 9.6 49 9.4 99 99 Calm 30.13 1020 10 16 0.00 0.00
6:15 am 06:15 Clear 49 9.2 48 9.1 99 99 Calm 30.14 1021 7 11 0.00 0.00
6:35 am 06:35 Clear 49 9.3 49 9.2 99 99 Calm 30.13 1020 10 16 0.00 0.00
6:55 am 06:55 Sunny 49 9.4 49 9.3 99 99 Calm 30.15 1021 10 16 0.00 0.00
7:15 am 07:15 Sunny 49 9.6 49 9.4 99 99 Calm 30.15 1021 10 16 0.00 0.00
7:35 am 07:35 Sunny 49 9.7 49 9.5 99 99 Calm 30.15 1021 10 16 0.00 0.00
7:55 am 07:55 Sunny 52 11 51 10.6 97 97 Calm 30.15 1021 10 16 0.00 0.00
8:15 am 08:15 Sunny 54 12.1 52 11.3 95 95 Calm 30.14 1021 10 16 0.00 0.00
8:35 am 08:35 Sunny 56 13.4 54 12.3 93 93 Calm 30.14 1021 10 16 0.00 0.00
8:55 am 08:55 Sunny 58 14.6 55 12.8 89 89 Calm 30.13 1020 10 16 0.00 0.00
9:15 am 09:15 Sunny 60 15.5 53 11.8 79 79 Calm 30.14 1021 10 16 0.00 0.00
9:35 am 09:35 Sunny 62 16.6 55 12.6 77 77 Calm 30.14 1021 10 16 0.00 0.00
9:55 am 09:55 Sunny 63 17.4 55 12.5 73 73 NNE 5 7 30.15 1021 10 16 0.00 0.00
10:15 am 10:15 Sunny 64 17.5 55 12.5 73 73 NE 3 6 30.14 1021 10 16 0.00 0.00
10:35 am 10:35 Sunny 65 18.2 55 12.8 71 71 NNE 3 6 30.15 1021 10 16 0.00 0.00
10:55 am 10:55 Partly Cloudy 65 18.4 55 12.6 69 69 Calm 30.15 1021 10 16 0.00 0.00
11:15 am 11:15 Mostly Cloudy 66 19 56 13.1 69 69 NNW 3 6 30.16 1021 10 16 0.00 0.00
11:35 am 11:35 Partly Cloudy 66 19.1 54 12.2 64 64 Calm 30.15 1021 10 16 0.00 0.00
11:55 am 11:55 Mostly Cloudy 67 19.5 54 12.4 64 64 NNW 5 7 30.15 1021 10 16 0.00 0.00
12:15 pm 12:15 Partly Cloudy 68 19.8 54 12.3 62 62 NNW 5 7 30.15 1021 10 16 0.00 0.00
12:35 pm 12:35 Partly Cloudy 68 20 54 12.2 61 61 NW 6 9 30.15 1021 10 16 0.00 0.00
12:55 pm 12:55 Partly Cloudy 69 20.4 55 12.7 61 61 Calm 30.13 1020 10 16 0.00 0.00
1:15 pm 13:15 Partly Cloudy 69 20.5 54 12 58 58 NNE 3 6 30.13 1020 10 16 0.00 0.00
1:35 pm 13:35 Sunny 69 20.5 54 12.4 60 60 NNW 5 7 30.13 1020 10 16 0.00 0.00
1:55 pm 13:55 Partly Cloudy 69 20.7 53 11.8 57 57 N 5 7 30.13 1020 10 16 0.00 0.00
2:15 pm 14:15 Mostly Cloudy 70 20.9 52 11.3 54 54 Calm 30.13 1020 10 16 0.00 0.00
2:35 pm 14:35 Mostly Cloudy 69 20.6 54 12.4 60 60 N 3 6 30.13 1020 10 16 0.00 0.00
2:55 pm 14:55 Mostly Cloudy 69 20.8 53 11.4 55 55 NNW 3 6 30.13 1020 10 16 0.00 0.00
3:15 pm 15:15 Mostly Cloudy 68 19.8 54 12.1 61 61 Calm 30.13 1020 10 16 0.00 0.00
3:35 pm 15:35 Mostly Cloudy 70 21.1 53 11.9 56 56 NNW 7 11 30.12 1020 10 16 0.00 0.00
3:55 pm 15:55 Mostly Cloudy 70 21.3 51 10.4 50 50 Calm 30.12 1020 10 16 0.00 0.00
4:15 pm 16:15 Partly Cloudy 68 20.2 54 12.2 60 60 N 6 9 30.12 1020 10 16 0.00 0.00
4:35 pm 16:35 Sunny 70 21.3 51 10.8 51 51 NW 3 6 30.11 1020 10 16 0.00 0.00
4:55 pm 16:55 Mostly Cloudy 71 21.9 55 12.6 56 56 NE 7 11 30.11 1020 10 16 0.00 0.00
5:15 pm 17:15 Partly Cloudy 71 21.6 52 11.2 52 52 N 5 7 30.10 1019 10 16 0.00 0.00
5:35 pm 17:35 Sunny 69 20.7 53 11.8 57 57 NNE 5 7 30.10 1019 10 16 0.00 0.00
5:55 pm 17:55 Sunny 70 21.3 53 11.4 53 53 NNW 5 7 30.10 1019 10 16 0.00 0.00
6:15 pm 18:15 Sunny 71 21.6 54 12.3 56 56 NE 6 9 30.09 1019 10 16 0.00 0.00
6:35 pm 18:35 Sunny 71 21.5 53 11.9 54 54 Calm 30.08 1019 10 16 0.00 0.00
6:55 pm 18:55 Sunny 69 20.7 55 12.5 60 60 NNE 3 6 30.08 1019 10 16 0.00 0.00
7:15 pm 19:15 Sunny 69 20.3 55 12.9 63 63 NNE 3 6 30.09 1019 10 16 0.00 0.00
7:35 pm 19:35 Sunny 67 19.7 59 15 74 74 Calm 30.09 1019 10 16 0.00 0.00
7:55 pm 19:55 Sunny 68 20 59 14.8 72 72 Calm 30.09 1019 10 16 0.00 0.00
8:15 pm 20:15 Sunny 67 19.5 58 14.7 74 74 NE 3 6 30.09 1019 10 16 0.00 0.00
8:35 pm 20:35 Sunny 65 18.1 59 15.1 83 83 Calm 30.09 1019 10 16 0.00 0.00
8:55 pm 20:55 Clear 63 17.1 59 14.8 86 86 Calm 30.09 1019 10 16 0.00 0.00
9:15 pm 21:15 Clear 61 16.1 58 14.5 90 90 Calm 30.10 1019 10 16 0.00 0.00
9:35 pm 21:35 Clear 59 15 57 14.1 94 94 N 3 6 30.10 1019 10 16 0.00 0.00
9:55 pm 21:55 Clear 58 14.6 56 13.6 94 94 Calm 30.10 1019 10 16 0.00 0.00
10:15 pm 22:15 Clear 59 14.9 57 13.8 93 93 Calm 30.10 1019 10 16 0.00 0.00
10:35 pm 22:35 Clear 58 14.3 56 13.5 95 95 Calm 30.11 1019 10 16 0.00 0.00
10:55 pm 22:55 Clear 57 13.9 56 13.4 97 97 Calm 30.11 1020 10 16 0.00 0.00
11:15 pm 23:15 Clear 56 13.4 55 13 97 97 Calm 30.11 1020 10 16 0.00 0.00
11:35 pm 23:35 Clear 56 13.4 55 13 97 97 Calm 30.12 1020 10 16 0.00 0.00
11:55 pm 23:55 Clear 56 13.3 55 12.7 96 96 Calm 30.12 1020 10 16 0.00 0.00

Powered by AerisWeather